Simultaneous Nadir Overpasses (SNOs) Predictions

Prediction of SNOs between METOP-C and LANDSAT-8 Satellite Orbit:

Table of predicted SNOs for the next 14.0 days since TLE Epoch: 4/11/2020
Index Date (METOP-C) Time (METOP-C) Lat,Lon (METOP-C) SZA (METOP-C ) Date (LANDSAT-8) Time (LANDSAT-8) Lat,Lon (LANDSAT-8) SZA (LANDSAT-8 ) Distance(km) Time Diff (sec)
1 04/11/2020 21:49:14 -81.05, 70.85 105.79 04/11/2020 21:50:10 -81.05, 70.79 105.77 1.14 56
2 04/11/2020 22:39:54 81.07,-121.26 74.28 04/11/2020 22:39:35 81.08,-121.15 74.28 2.18 19
3 04/14/2020 17:23:38 -81.04, 137.00 106.82 04/14/2020 17:24:25 -81.05, 137.17 106.78 3.01 47
4 04/14/2020 18:14:17 81.08, -54.78 73.29 04/14/2020 18:13:50 81.08, -54.80 73.28 0.43 27
5 04/17/2020 12:58:00 -81.04,-156.49 107.78 04/17/2020 12:58:39 -81.05,-156.38 107.75 2.11 39
6 04/17/2020 13:48:39 81.08, 11.70 72.33 04/17/2020 13:48:04 81.08, 11.63 72.30 1.20 35
7 04/20/2020 08:32:23 -81.05, -90.00 108.72 04/20/2020 08:32:54 -81.06, -89.84 108.68 2.87 31
8 04/20/2020 09:23:02 81.08, 78.15 71.38 04/20/2020 09:22:19 81.08, 78.14 71.36 0.25 43
9 04/23/2020 04:06:46 -81.05, -23.51 109.63 04/23/2020 04:07:10 -81.05, -23.58 109.64 1.47 24




NCC Satellite Simultaneous Nadir Overpasses (SNOs) Prediction Service
